When you browse on this site, cookies collect data to enhance your experience and personalize the content and advertising you see.
Visit our Privacy Policy to learn more. By continuing to use the site, you agree to this use of cookies and data.
  • In Austria
  • List of Countries
  • For 7 days
  • Water Temperature
  • Satellite Maps
  • Weather Map
  • News
  • Weather Widgets
  • user-avatar
    Login

    Hourly Weather Nakhchivan

    Today, 18 July, Thursday

    Time Temperature Precipitation Wind Pressure Humidity
    00:00 +28°C° 0 mm 3 mps 683 mmHg 40%
    01:00 +28°C° 0 mm 2 mps 683 mmHg 41%
    02:00 +27°C° 0 mm 2 mps 683 mmHg 43%
    03:00 +26°C° 0 mm 1 mps 683 mmHg 43%
    04:00 +27°C° 0 mm 1 mps 683 mmHg 43%
    05:00 +27°C° 0 mm 1 mps 684 mmHg 42%
    06:00 +27°C° 0 mm 1 mps 684 mmHg 42%
    07:00 +29°C° 0 mm 1 mps 684 mmHg 38%
    08:00 +30°C° 0 mm 1 mps 684 mmHg 34%
    09:00 +32°C° 0 mm 1 mps 684 mmHg 31%
    10:00 +33°C° 0 mm 1 mps 684 mmHg 28%
    11:00 +35°C° 0 mm 1 mps 684 mmHg 24%
    12:00 +36°C° 0 mm 1 mps 684 mmHg 21%
    13:00 +38°C° 0 mm 2 mps 684 mmHg 18%
    14:00 +39°C° 0 mm 2 mps 684 mmHg 15%
    15:00 +40°C° 0 mm 3 mps 684 mmHg 12%
    16:00 +41°C° 0 mm 4 mps 684 mmHg 12%
    17:00 +42°C° 0 mm 5 mps 684 mmHg 12%
    18:00 +42°C° 0 mm 6 mps 684 mmHg 11%
    19:00 +39°C° 0 mm 5 mps 684 mmHg 16%
    20:00 +36°C° 0 mm 4 mps 684 mmHg 21%
    21:00 +34°C° 0 mm 4 mps 684 mmHg 25%
    22:00 +33°C° 0 mm 3 mps 684 mmHg 27%
    23:00 +31°C° 0 mm 3 mps 684 mmHg 29%

    Tomorrow, 19 July, Friday

    Time Temperature Precipitation Wind Pressure Humidity
    00:00 +30°C° 0 mm 2 mps 684 mmHg 30%
    01:00 +29°C° 0 mm 2 mps 684 mmHg 32%
    02:00 +28°C° 0 mm 1 mps 684 mmHg 34%
    03:00 +27°C° 0 mm 1 mps 684 mmHg 36%
    04:00 +28°C° 0 mm 1 mps 684 mmHg 36%
    05:00 +28°C° 0 mm 1 mps 684 mmHg 35%
    06:00 +26°C° 0 mm 0 mps 685 mmHg 35%
    07:00 +30°C° 0 mm 1 mps 685 mmHg 32%
    08:00 +31°C° 0 mm 1 mps 685 mmHg 29%
    09:00 +34°C° 0 mm 2 mps 685 mmHg 26%
    10:00 +34°C° 0 mm 1 mps 685 mmHg 23%
    11:00 +35°C° 0 mm 1 mps 685 mmHg 20%
    12:00 +37°C° 0 mm 1 mps 685 mmHg 17%
    13:00 +39°C° 0 mm 1 mps 685 mmHg 15%
    14:00 +40°C° 0 mm 1 mps 685 mmHg 14%
    15:00 +41°C° 0 mm 1 mps 684 mmHg 12%
    16:00 +40°C° 0 mm 3 mps 685 mmHg 14%
    17:00 +41°C° 0 mm 4 mps 685 mmHg 17%
    18:00 +40°C° 0 mm 6 mps 685 mmHg 19%
    19:00 +37°C° 0 mm 5 mps 685 mmHg 25%
    20:00 +35°C° 0 mm 5 mps 685 mmHg 30%
    21:00 +32°C° 0 mm 4 mps 686 mmHg 35%
    22:00 +30°C° 0 mm 3 mps 686 mmHg 38%
    23:00 +29°C° 0 mm 3 mps 686 mmHg 40%

    Day after tomorrow, 20 July, Saturday

    Time Temperature Precipitation Wind Pressure Humidity
    00:00 +28°C° 0 mm 2 mps 686 mmHg 42%
    01:00 +28°C° 0 mm 2 mps 686 mmHg 44%
    02:00 +27°C° 0 mm 1 mps 686 mmHg 46%
    03:00 +27°C° 0 mm 1 mps 686 mmHg 48%
    04:00 +27°C° 0 mm 1 mps 687 mmHg 48%
    05:00 +27°C° 0 mm 1 mps 687 mmHg 47%
    06:00 +27°C° 0 mm 1 mps 688 mmHg 47%
    07:00 +28°C° 0 mm 1 mps 688 mmHg 43%
    08:00 +29°C° 0 mm 2 mps 688 mmHg 39%
    09:00 +31°C° 0 mm 2 mps 688 mmHg 35%
    10:00 +34°C° 0 mm 2 mps 688 mmHg 31%
    11:00 +35°C° 0 mm 3 mps 689 mmHg 27%
    12:00 +37°C° 0 mm 3 mps 689 mmHg 23%
    13:00 +38°C° 0 mm 4 mps 689 mmHg 21%
    14:00 +40°C° 0 mm 4 mps 688 mmHg 20%
    15:00 +42°C° 0 mm 5 mps 688 mmHg 18%
    16:00 +41°C° 0 mm 5 mps 688 mmHg 19%
    17:00 +40°C° 0 mm 6 mps 688 mmHg 20%
    18:00 +39°C° 0 mm 6 mps 688 mmHg 22%
    19:00 +36°C° 0 mm 5 mps 688 mmHg 26%
    20:00 +34°C° 0 mm 5 mps 689 mmHg 30%
    21:00 +32°C° 0 mm 4 mps 689 mmHg 34%
    22:00 +30°C° 0 mm 4 mps 689 mmHg 36%
    23:00 +29°C° 0 mm 3 mps 689 mmHg 39%

    21 July, Sunday

    Time Temperature Precipitation Wind Pressure Humidity
    00:00 +28°C° 0 mm 2 mps 689 mmHg 41%
    01:00 +27°C° 0 mm 2 mps 689 mmHg 43%
    02:00 +27°C° 0 mm 2 mps 689 mmHg 44%
    03:00 +26°C° 0 mm 2 mps 689 mmHg 46%
    04:00 +26°C° 0 mm 1 mps 689 mmHg 46%
    05:00 +26°C° 0 mm 1 mps 689 mmHg 45%
    06:00 +26°C° 0 mm 1 mps 689 mmHg 45%
    07:00 +28°C° 0 mm 2 mps 689 mmHg 41%
    08:00 +30°C° 0 mm 2 mps 689 mmHg 36%
    09:00 +31°C° 0 mm 2 mps 689 mmHg 32%
    10:00 +34°C° 0 mm 3 mps 689 mmHg 28%
    11:00 +36°C° 0 mm 3 mps 689 mmHg 24%
    12:00 +40°C° 0 mm 4 mps 689 mmHg 20%
    13:00 +41°C° 0 mm 5 mps 689 mmHg 18%
    14:00 +42°C° 0 mm 5 mps 688 mmHg 16%
    15:00 +45°C° 0 mm 5 mps 688 mmHg 15%
    16:00 +43°C° 0 mm 5 mps 688 mmHg 16%
    17:00 +42°C° 0 mm 5 mps 688 mmHg 17%
    18:00 +42°C° 0 mm 5 mps 688 mmHg 18%
    19:00 +38°C° 0 mm 4 mps 688 mmHg 22%
    20:00 +36°C° 0 mm 4 mps 688 mmHg 26%
    21:00 +34°C° 0 mm 3 mps 688 mmHg 30%
    22:00 +33°C° 0 mm 3 mps 688 mmHg 32%
    23:00 +31°C° 0 mm 3 mps 687 mmHg 34%

    22 July, Monday

    Time Temperature Precipitation Wind Pressure Humidity
    00:00 +30°C° 0 mm 3 mps 687 mmHg 36%
    01:00 +29°C° 0 mm 2 mps 687 mmHg 38%
    02:00 +28°C° 0 mm 2 mps 687 mmHg 39%
    03:00 +28°C° 0 mm 1 mps 686 mmHg 41%
    04:00 +28°C° 0 mm 1 mps 686 mmHg 40%
    05:00 +28°C° 0 mm 1 mps 686 mmHg 40%
    06:00 +29°C° 0 mm 1 mps 687 mmHg 39%
    07:00 +30°C° 0 mm 1 mps 687 mmHg 35%
    08:00 +32°C° 0 mm 1 mps 687 mmHg 32%
    09:00 +33°C° 0 mm 1 mps 687 mmHg 28%
    10:00 +36°C° 0 mm 1 mps 687 mmHg 24%
    11:00 +39°C° 0 mm 2 mps 686 mmHg 21%
    12:00 +41°C° 0 mm 2 mps 686 mmHg 17%
    13:00 +43°C° 0 mm 4 mps 686 mmHg 15%
    14:00 +46°C° 0 mm 5 mps 686 mmHg 13%
    15:00 +48°C° 0 mm 6 mps 686 mmHg 10%
    16:00 +46°C° 0 mm 6 mps 685 mmHg 12%
    17:00 +45°C° 0 mm 6 mps 685 mmHg 14%
    18:00 +44°C° 0 mm 7 mps 685 mmHg 16%
    19:00 +41°C° 0 mm 6 mps 685 mmHg 20%
    20:00 +37°C° 0 mm 5 mps 685 mmHg 24%
    21:00 +35°C° 0 mm 4 mps 685 mmHg 29%
    22:00 +34°C° 0 mm 3 mps 684 mmHg 31%
    23:00 +33°C° 0 mm 3 mps 684 mmHg 33%

    23 July, Tuesday

    Time Temperature Precipitation Wind Pressure Humidity
    00:00 +31°C° 0 mm 2 mps 684 mmHg 35%
    01:00 +30°C° 0 mm 2 mps 684 mmHg 38%
    02:00 +29°C° 0 mm 2 mps 684 mmHg 42%
    03:00 +28°C° 0 mm 2 mps 683 mmHg 45%
    04:00 +28°C° 0 mm 2 mps 684 mmHg 46%
    05:00 +28°C° 0 mm 2 mps 684 mmHg 46%
    06:00 +28°C° 0 mm 3 mps 684 mmHg 47%
    07:00 +29°C° 0 mm 3 mps 684 mmHg 43%
    08:00 +31°C° 0 mm 3 mps 684 mmHg 39%
    09:00 +33°C° 0 mm 3 mps 684 mmHg 35%
    10:00 +34°C° 0 mm 3 mps 684 mmHg 32%
    11:00 +36°C° 0 mm 3 mps 684 mmHg 28%
    12:00 +37°C° 0 mm 2 mps 684 mmHg 25%
    13:00 +38°C° 0 mm 2 mps 683 mmHg 23%
    14:00 +39°C° 0 mm 3 mps 683 mmHg 21%
    15:00 +40°C° 0 mm 3 mps 683 mmHg 18%
    16:00 +40°C° 0 mm 3 mps 683 mmHg 19%
    17:00 +40°C° 0 mm 3 mps 683 mmHg 20%
    18:00 +39°C° 0 mm 3 mps 683 mmHg 21%
    19:00 +37°C° 0 mm 3 mps 683 mmHg 25%
    20:00 +35°C° 0 mm 3 mps 683 mmHg 30%
    21:00 +33°C° 0 mm 3 mps 684 mmHg 35%
    22:00 +31°C° 0 mm 3 mps 684 mmHg 37%
    23:00 +30°C° 0 mm 2 mps 684 mmHg 39%
    Show more